"Pseudo-MPEC" for P21888i

Created 2020 Oct 18 23:07:51 UT using Find_Orb

Click here for an explanation of pseudo-MPECs

 
 Astrometry: 
     P21888i  C2020 10 167evkA)M+48I4M?JFR['!D$Y8%p@LELd0I/QR\6@N_T!XX1m)fk/kF52
     P21888i  C2020 10 16$JtBP@nn*q#6#9LChAstrometry2QCj/EUVNvH8gL:k!6AA^j%0mF52
     P21888i  C2020 10 16;3aBWO..rRr.NF^P^K#Rp$hky'[X7)NJjredacted;p[?$D70/DVF52
     P21888i  C2020 10 18.25273000 01 16.52 -07 56 26.1    ~AI6q 19.77GVNEOCPG96
     P21888i  C2020 10 18.25794700 01 19.94 -07 55 13.3    ~AI6q 19.89GVNEOCPG96
     P21888i  C2020 10 18.26317100 01 23.30 -07 54 01.9    ~AI6q 20.05GVNEOCPG96
     P21888i  C2020 10 18.26838300 01 26.76 -07 52 48.8    ~AI6q 19.69GVNEOCPG96
     P21888i  C2020 10 18Vun'xGQViC/p$g--;2QeGpikbT-qL,')'v0YC5clickf_x]=eD%[F51
     P21888i  C2020 10 180VFXMjIiD1:p=ByxdW;F'?D\c=aDMk_E5c4YNN)kJ)ihG]MF?Fj7F51
     P21888i  C2020 10 18(STDR\wAa2*OEXWN#(1FJXF._F'+jhxs2P/NMPi95r8mOfKWRq(0F51
     P21888i KC2020 10 18rjJrK/ciwackKk41k,I^\ic9A5u,-eV%6eBZ=)PZtLlhereX`WIGL01
     P21888i KC2020 10 18a)pKvk`rwG7-(sIj,lJ[HP'k_)8?kA5p=[0iXW[f]c9`%]mqa(t8L01
     P21888i KC2020 10 18/)n^A4)#y3^/#q@^7#!*Zge+Nm%@IKD9G:NU/+)Cq,D!$$BicJ\iL01
     P21888i KC2020 10 18k9IndgmW4-sh[for(w@.c%faZk?4)MKrrduf(bY_PA2oow#O`]oq104
     P21888i KC2020 10 18:ANO$!PMK9FgM_=nq5J@*GDYb[)d,C_ZL5LnbD@VDa))%QU:Uuy#104
     P21888i KC2020 10 18s2?.;];_vue:18cM6])[DexplanationfdI=sMo=PBOIQk`F*\uo104
     P21888i KC2020 10 18.86316300 08 10.36 -05 44 40.7    ~AIL7 19.2 GVNEOCPI93
     P21888i KC2020 10 18.87066500 08 14.73 -05 43 10.0    ~AIL7 20.2 GVNEOCPI93

Station data:
(104) San Marcello Pistoiese  (N44.063037 E10.804200)  Italy. 0.40-m f/5
   reflector.
(F51) Pan-STARRS 1, Haleakala  (N20.707235 W156.255910)  US/Hawaii.
   Observers N. Primak, A. Schultz, S. Watters, J. Thiel, T. Goggia. Measurer
   PS1 Science Consortium. 1.8-m Ritchey-Chrétien + CCD.
(F52) Pan-STARRS 2, Haleakala  (N20.707384 W156.255910)  US/Hawaii. 1.8-m
   Ritchey-Chrétien + CCD.
(G96) Mt. Lemmon Survey  (N32.442754 W110.788720)  US/Arizona.  Observers T.
   A. Pruyne, B. M. Africano, E. J. Christensen, G. A. Farneth, D. C. Fuls,
   A. R. Gibbs, A. D. Grauer, H. Gröller, J. A. Johnson, R. A. Kowalski, S.
   M. Larson, G. J. Leonard, D. Rankin, R. L. Seaman, F. C. Shelly. 1.5-m
   reflector + 10K CCD.
(I93) St Pardon de Conques  (N44.558710 W0.203000)  France.  Observer F.
   Losse. 0.40-m f/3.7 reflector + CCD.
(L01) Višnjan Observatory, Tičan  (N45.290900 E13.749300)  Croatia.
   Observers K. Korlević, E. Pettarin. Measurer E. Pettarin. 1.0-m f/2.9
   reflector + CCD.

Orbital elements:  P21888i
   Perihelion 2020 Aug 24.771803 +/- 0.0317 TT = 18:31:23 (JD 2459086.271803)
Epoch 2020 Oct 18.0 TT = JDT 2459140.5   Earth MOID: 0.0141   Ma: 0.0203
M  32.50387621 +/- 0.08             (J2000 ecliptic)          AutoNEOCP
n   0.59939068 +/- 0.00118          Peri.  284.27721 +/- 0.009
a   1.39314414 +/- 0.00183          Node    28.62048 +/- 0.0029
e   0.3973422 +/- 0.000971          Incl.    4.04396 +/- 0.008
P   1.64/600.60d           H 25.3   G  0.15   U  8.2  
q 0.83958908 +/- 0.000257    Q 1.94669920 +/- 0.00391
From 18 observations 2020 Oct. 16-18; mean residual 0".32
Residuals in arcseconds: 
201016 F52  .02+  .05-    201018 G96  .15+  .18+    201018 L01  .03+  .01-    
201016 F52  .15-  .18-    201018 F51  .09+  .17+    201018 104  .53+  .39-    
201016 F52  .15+  .22+    201018 F51  .07+  .16+    201018 104  .01-  .79-    
201018 G96  .11+  .00     201018 F51  .01-  .08+    201018 104  .51-  .30+    
201018 G96  .19+  .37+    201018 L01  .48-  .18+    201018 I93  .05-  .32+    
201018 G96  .65-  .69-    201018 L01  .31-  .07-    201018 I93  .69+  .12+    

Ephemerides (geocentric):
Date (UTC) HH   RA              Dec         delta   r     elong  mag " sig PA
---- -- -- --  -------------   -----------  ------ ------ -----  --- ---- ---
2020 10 18 23  00 09 05.797   -05 23 26.97  .05154 1.0425 153.6 20.1 .216 163
2020 10 19 00  00 09 31.142   -05 15 13.68  .05178 1.0427 153.7 20.1 .210 161
2020 10 19 01  00 09 56.253   -05 07 04.74  .05201 1.0430 153.8 20.1 .205 159
2020 10 19 02  00 10 21.133   -04 59 00.10  .05225 1.0432 154.0 20.1 .201 157
2020 10 19 03  00 10 45.785   -04 50 59.71  .05249 1.0435 154.1 20.1 .196 154
2020 10 19 04  00 11 10.212   -04 43 03.52  .05273 1.0437 154.2 20.2 .192 152
2020 10 19 05  00 11 34.418   -04 35 11.49  .05296 1.0440 154.3 20.2 .188 150
2020 10 19 06  00 11 58.404   -04 27 23.58  .05320 1.0442 154.4 20.2 .184 147
2020 10 19 07  00 12 22.175   -04 19 39.73  .05344 1.0445 154.5 20.2 .181 144
2020 10 19 08  00 12 45.732   -04 11 59.91  .05368 1.0447 154.7 20.2 .178 142
2020 10 19 09  00 13 09.079   -04 04 24.07  .05392 1.0450 154.8 20.2 .176 139
2020 10 19 10  00 13 32.218   -03 56 52.17  .05416 1.0452 154.9 20.2 .174 136
2020 10 19 11  00 13 55.152   -03 49 24.16  .05440 1.0455 155.0 20.2 .172 133
2020 10 19 12  00 14 17.884   -03 42 00.01  .05464 1.0457 155.1 20.2 .171 130
2020 10 19 13  00 14 40.416   -03 34 39.67  .05489 1.0460 155.2 20.2 .170 127
2020 10 19 14  00 15 02.751   -03 27 23.09  .05513 1.0462 155.3 20.2 .170 123
2020 10 19 15  00 15 24.892   -03 20 10.25  .05537 1.0465 155.4 20.2 .170 120
2020 10 19 16  00 15 46.840   -03 13 01.09  .05562 1.0467 155.5 20.2 .171 117
2020 10 19 17  00 16 08.599   -03 05 55.58  .05586 1.0470 155.6 20.2 .173 114
2020 10 19 18  00 16 30.170   -02 58 53.67  .05610 1.0472 155.7 20.3 .175 111
2020 10 19 19  00 16 51.557   -02 51 55.34  .05635 1.0475 155.8 20.3 .177 108
2020 10 19 20  00 17 12.761   -02 45 00.54  .05659 1.0477 155.9 20.3 .180 105
2020 10 19 21  00 17 33.785   -02 38 09.23  .05684 1.0480 156.0 20.3 .183 102
2020 10 19 22  00 17 54.631   -02 31 21.37  .05708 1.0482 156.1 20.3 .187  99
2020 10 19 23  00 18 15.301   -02 24 36.92  .05733 1.0485 156.2 20.3 .191  97
2020 10 20 00  00 18 35.798   -02 17 55.86  .05758 1.0487 156.3 20.3 .195  94
2020 10 20 01  00 18 56.123   -02 11 18.14  .05782 1.0490 156.4 20.3 .200  92
2020 10 20 02  00 19 16.279   -02 04 43.73  .05807 1.0492 156.4 20.3 .205  90
2020 10 20 03  00 19 36.267   -01 58 12.59  .05832 1.0495 156.5 20.3 .210  87
2020 10 20 04  00 19 56.091   -01 51 44.68  .05857 1.0498 156.6 20.3 .216  85
2020 10 20 05  00 20 15.751   -01 45 19.97  .05882 1.0500 156.7 20.3 .222  83
2020 10 20 06  00 20 35.250   -01 38 58.43  .05906 1.0503 156.8 20.3 .228  82
2020 10 20 07  00 20 54.590   -01 32 40.03  .05931 1.0505 156.9 20.3 .234  80
2020 10 20 08  00 21 13.773   -01 26 24.72  .05956 1.0508 156.9 20.4 .241  78
2020 10 20 09  00 21 32.801   -01 20 12.47  .05981 1.0510 157.0 20.4 .247  77
2020 10 20 10  00 21 51.675   -01 14 03.26  .06006 1.0513 157.1 20.4 .254  75
2020 10 20 11  00 22 10.397   -01 07 57.04  .06031 1.0515 157.2 20.4 .261  74
2020 10 20 12  00 22 28.970   -01 01 53.80  .06056 1.0518 157.3 20.4 .268  72
2020 10 20 13  00 22 47.395   -00 55 53.49  .06082 1.0520 157.3 20.4 .276  71
2020 10 20 14  00 23 05.673   -00 49 56.08  .06107 1.0523 157.4 20.4 .283  70
2020 10 20 15  00 23 23.807   -00 44 01.55  .06132 1.0525 157.5 20.4 .290  69
2020 10 20 16  00 23 41.798   -00 38 09.86  .06157 1.0528 157.6 20.4 .298  68
2020 10 20 17  00 23 59.648   -00 32 20.98  .06182 1.0530 157.6 20.4 .305  67
2020 10 20 18  00 24 17.358   -00 26 34.88  .06208 1.0533 157.7 20.4 .313  66
2020 10 20 19  00 24 34.931   -00 20 51.54  .06233 1.0535 157.8 20.4 .321  65
2020 10 20 20  00 24 52.367   -00 15 10.92  .06258 1.0538 157.8 20.4 .329  64
2020 10 20 21  00 25 09.669   -00 09 33.00  .06284 1.0540 157.9 20.4 .336  63
2020 10 20 22  00 25 26.837   -00 03 57.74  .06309 1.0543 158.0 20.5 .344  62